DW9686 Weather Reports


time (UTC)temp
C
wind
direction
speed
KPH
gust
KPH
rain 1hr
cm
rain 24hr
cm
rain mn
cm
humidity
%
barometer
mb
20260901060043 20 309 11.3 16.1 0.00 0.00 0.00 51 1006.5
20260901054544 20 311 9.7 16.1 0.00 0.00 0.00 52 1006.6
20260901053042 20 313 11.3 17.7 0.00 0.00 0.00 52 1006.6
20260901051547 20 310 9.7 17.7 0.00 0.00 0.00 52 1006.7
20260901050041 21 306 11.3 19.3 0.00 0.00 0.00 50 1006.7
20260901044538 21 297 11.3 19.3 0.00 0.00 0.00 50 1006.8
20260901043045 21 310 11.3 20.9 0.00 0.00 0.00 48 1006.6
20260901041542 22 305 14.5 20.9 0.00 0.00 0.00 46 1006.7
20260901040042 22 303 12.9 22.5 0.00 0.00 0.00 46 1006.7
20260901034543 22 294 14.5 22.5 0.00 0.00 0.00 46 1006.8
20260901033041 22 304 12.9 17.7 0.00 0.00 0.00 47 1006.8
20260901031547 22 305 12.9 19.3 0.00 0.00 0.00 48 1006.8
20260901030040 22 313 9.7 16.1 0.00 0.00 0.00 50 1006.9
20260901024543 23 315 9.7 16.1 0.00 0.00 0.00 50 1006.7
20260901023046 23 315 8.0 16.1 0.00 0.00 0.00 51 1006.8
20260901021547 23 317 8.0 12.9 0.00 0.00 0.00 52 1006.8
20260901020041 24 319 6.4 12.9 0.00 0.00 0.00 51 1006.8
20260901014545 25 320 6.4 12.9 0.00 0.00 0.00 50 1006.9
20260901013056 26 320 6.4 9.7 0.00 0.00 0.00 50 1007.1
20260901011537 26 320 6.4 14.5 0.00 0.00 0.00 49 1007.0
20260901010049 26 321 6.4 12.9 0.00 0.00 0.00 49 1007.2
20260901004541 26 321 6.4 12.9 0.00 0.00 0.00 52 1007.4
20260901003048 26 325 4.8 9.7 0.00 0.00 0.00 55 1007.7
20260901001540 26 327 4.8 8.0 0.00 0.00 0.00 54 1008.0
20260901000037 26 327 4.8 12.9 0.00 0.00 0.00 53 1008.2
20260831234540 26 329 4.8 9.7 0.00 0.00 0.00 49 1008.3
20260831233037 26 327 6.4 12.9 0.00 0.00 0.00 49 1008.5
20260831231540 27 329 4.8 14.5 0.00 0.00 0.00 48 1008.8
20260831230038 27 330 4.8 12.9 0.00 0.00 0.00 51 1009.0
20260831224538 26 331 4.8 9.7 0.00 0.00 0.00 49 1009.2
20260831223042 26 331 6.4 14.5 0.00 0.00 0.00 46 1009.5
20260831221543 26 331 6.4 12.9 0.00 0.00 0.00 47 1009.7
20260831220036 26 332 6.4 14.5 0.00 0.00 0.00 45 1009.9
20260831214541 27 334 6.4 14.5 0.00 0.00 0.00 42 1010.1
20260831213044 27 331 8.0 16.1 0.00 0.00 0.00 39 1010.6
20260831211543 27 328 8.0 17.7 0.00 0.00 0.00 38 1010.6
20260831210040 26 336 8.0 19.3 0.00 0.00 0.00 39 1010.9
20260831204539 26 338 8.0 16.1 0.00 0.00 0.00 40 1011.2
20260831203041 26 333 6.4 17.7 0.00 0.00 0.00 41 1011.4
20260831201552 25 342 9.7 16.1 0.00 0.00 0.00 42 1011.8
20260831200043 25 349 8.0 16.1 0.00 0.00 0.00 42 1012.1
20260831194626 24 348 6.4 14.5 0.00 0.00 0.00 45 1012.3
20260831193036 24 351 6.4 14.5 0.00 0.00 0.00 46 1012.6
20260831191538 23 5 6.4 16.1 0.00 0.00 0.00 47 1012.9
20260831190042 22 5 6.4 16.1 0.00 0.00 0.00 49 1013.3
20260831184543 22 11 6.4 14.5 0.00 0.00 0.00 50 1013.5
20260831183043 21 14 8.0 16.1 0.00 0.00 0.00 51 1013.8
20260831181545 21 15 8.0 20.9 0.00 0.00 0.00 52 1014.0
20260831180036 21 18 9.7 19.3 0.00 0.00 0.00 53 1014.0
20260831174543 20 9 8.0 17.7 0.00 0.00 0.00 52 1014.3
20260831173040 20 352 9.7 17.7 0.00 0.00 0.00 56 1014.4
20260831171544 19 352 8.0 16.1 0.00 0.00 0.00 58 1014.5
20260831170040 18 352 8.0 16.1 0.00 0.00 0.00 59 1014.6
20260831164535 18 348 9.7 19.3 0.00 0.00 0.00 55 1014.6
20260831163040 17 338 8.0 16.1 0.00 0.00 0.00 57 1014.9
20260831161541 16 333 8.0 17.7 0.00 0.00 0.00 58 1015.0
20260831160043 16 320 8.0 14.5 0.00 0.00 0.00 57 1015.3
20260831154604 15 319 4.8 12.9 0.00 0.00 0.00 59 1015.3
20260831153042 14 319 6.4 12.9 0.00 0.00 0.00 61 1015.3
20260831151536 13 319 6.4 12.9 0.00 0.00 0.00 65 1015.3
20260831150041 13 319 8.0 14.5 0.00 0.00 0.00 63 1015.2
20260831144546 12 306 4.8 11.3 0.00 0.00 0.00 65 1015.1
20260831143036 12 306 9.7 16.1 0.00 0.00 0.00 66 1014.7
20260831141543 11 256 6.4 14.5 0.00 0.00 0.00 69 1014.6
20260831140039 10 250 4.8 11.3 0.00 0.00 0.00 70 1014.8
20260831134542 10 248 3.2 8.0 0.00 0.00 0.00 71 1014.6
20260831133049 10 248 4.8 11.3 0.00 0.00 0.00 73 1014.6
20260831131536 9 248 3.2 8.0 0.00 0.00 0.00 73 1014.7
20260831130039 10 248 3.2 6.4 0.00 0.00 0.00 73 1014.5
20260831124540 10 248 3.2 8.0 0.00 0.00 0.00 73 1014.5
20260831123042 10 248 4.8 12.9 0.00 0.00 0.00 74 1014.3
20260831121545 10 211 4.8 9.7 0.00 0.00 0.00 74 1014.4
20260831120042 10 207 3.2 6.4 0.00 0.00 0.00 74 1014.3
20260831114550 10 207 3.2 6.4 0.00 0.00 0.00 74 1014.2
20260831113040 10 206 3.2 6.4 0.00 0.00 0.00 74 1014.4
20260831111544 10 206 1.6 6.4 0.00 0.00 0.00 74 1014.5
20260831110040 11 206 3.2 6.4 0.00 0.00 0.00 73 1014.4
20260831104543 11 206 3.2 6.4 0.00 0.00 0.00 72 1014.3
20260831103040 12 205 3.2 8.0 0.00 0.00 0.00 70 1014.3
20260831101540 13 205 3.2 6.4 0.00 0.00 0.00 66 1014.4
20260831100100 13 205 3.2 6.4 0.00 0.00 0.00 65 1014.4
20260831094536 13 205 3.2 6.4 0.00 0.00 0.00 65 1014.5
20260831093041 13 205 3.2 6.4 0.00 0.00 0.00 64 1014.7
20260831091546 13 205 3.2 4.8 0.00 0.00 0.00 63 1014.8
20260831090037 13 205 3.2 6.4 0.00 0.00 0.00 65 1014.9
20260831084556 13 205 3.2 4.8 0.00 0.00 0.00 68 1015.0
20260831083042 13 205 0.0 8.0 0.00 0.00 0.00 68 1015.0
20260831081537 13 202 3.2 6.4 0.00 0.00 0.00 67 1014.8
20260831080038 13 202 3.2 6.4 0.00 0.00 0.00 67 1014.8
20260831074549 13 0 0.0 0.0 0.00 0.00 0.00 67 1014.8
20260831073043 15 0 0.0 6.4 0.00 0.00 0.00 63 1014.9
20260831071536 15 202 3.2 6.4 0.00 0.00 0.00 61 1014.9
20260831070040 15 202 3.2 6.4 0.00 0.00 0.00 61 1014.9
20260831064539 15 202 3.2 6.4 0.00 0.00 0.00 61 1014.9
20260831063039 16 202 3.2 6.4 0.00 0.00 0.00 60 1014.9
20260831061540 16 202 3.2 6.4 0.00 0.00 0.00 59 1014.9